Regional Weather Roundup
Issued by NWS

Home | Current Version | Previous Version | Text Only | Print | Product List | Glossary Off
Versions: 1 2 3 4 5 6 7 8 9 10 11 12 13 14 15 16 17 18 19 20 21 22 23 24 25 26 27 28 29 30 31 32 33 34 35 36 37 38 39 40 41 42 43 44 45 46 47 48 49 50

000
ASUS45 KTFX 242010
RWRMT
MONTANA REGIONAL WEATHER ROUNDUP
NATIONAL WEATHER SERVICE GREAT FALLS MT
200 PM MDT TUE APR 24 2018

NOTE: "FAIR" INDICATES FEW OR NO CLOUDS BELOW 12000 FEET WITH NO
SIGNIFICANT WEATHER AND/OR OBSTRUCTIONS TO VISIBILITY.

MTZ001>007-043-242100-
WEST OF THE DIVIDE

CITY           SKY/WX    TMP DP  RH WIND       PRES   REMARKS
KALISPELL      FAIR      58  25  28 N3        30.37F
MISSOULA       FAIR      58  28  32 VRB3      30.37F
BUTTE          FAIR      49  21  33 S12       30.42F
MULLAN PASS    FAIR      49  16  26 VRB5      30.37F
ANACONDA         N/A     54  18  24 E8        30.40F
DEER LODGE       N/A     55  18  22 MISG      30.40F
HAMILTON         N/A     57  23  26 MISG      30.37F
RONAN            N/A     57  23  26 W6        30.39F
$$

MTZ008-052>055-242100-
SOUTHWEST MONTANA

CITY           SKY/WX    TMP DP  RH WIND       PRES   REMARKS
BOZEMAN        FAIR      49  29  46 VRB3      30.44F
DILLON         FAIR      45  25  45 CALM      30.42F
ENNIS          SUNNY     45  25  45 S7        30.46F
W YELLOWSTONE  FAIR      41  16  36 CALM      30.40F
THREE FORKS      N/A     49  28  44 CALM      30.39F
$$

MTZ009-010-012-014-046-048-049-054-242100-
EAST SLOPES AND CENTRAL MONTANA

CITY           SKY/WX    TMP DP  RH WIND       PRES   REMARKS
CUT BANK       FAIR      65   7  10 S16G23    30.28F
GREAT FALLS    FAIR      60  20  21 S20G28    30.35F
HELENA         FAIR      55  30  38 E9G17     30.41F
CHOTEAU          N/A     63  14  15 S15G24    30.33F
WHITE SULPHUR    N/A     45  27  49 SE16G22   30.42F
$$

MTZ011-013-016-021-045-047-050-051-242100-
NORTH CENTRAL MONTANA

CITY           SKY/WX    TMP DP  RH WIND       PRES   REMARKS
HAVRE          FAIR      63  22  20 SW18G29   30.33F
LEWISTOWN      FAIR      53  24  32 CALM      30.39F
N BAR RANCH    FAIR      50  27  40 SW15      30.42F
CHINOOK          N/A     63  27  25 NE3       30.33F
$$

MTZ017>020-022>027-061-062-242100-
NORTHEAST MONTANA

CITY           SKY/WX    TMP DP  RH WIND       PRES   REMARKS
GLASGOW        FAIR      62  23  22 VRB6      30.38F
GLENDIVE       FAIR      56  31  38 S10       30.44F
JORDAN           N/A     57  28  33 SW8       30.41F
MALTA          SUNNY     61  28  29 S9G18     30.35F
SIDNEY         FAIR      58  29  33 S12       30.42F
WOLF POINT     FAIR      62  24  23 NW9       30.40F
PLENTYWOOD       N/A     57  21  24 CALM      30.38F
POPLAR           N/A     57  21  24 W6        30.41F
$$

MTZ028>42-056>058-242100-
SOUTHCENTRAL AND SOUTHEAST MONTANA

CITY           SKY/WX    TMP DP  RH WIND       PRES   REMARKS
BAKER          FAIR      44  27  51 SW6       30.48F
BILLINGS       FAIR      51  28  41 W12       30.46F
LIVINGSTON     FAIR      49  29  46 VRB5      30.44F
MILES CITY     FAIR      52  31  44 W5        30.46F
BIG TIMBER     SUNNY     43  25  49 SE6       30.47F
EKALAKA          N/A     40  37  89 CALM      30.41
FORSYTH          N/A     52  28  40 S9        30.45F
ROUNDUP          N/A     52  21  29 SW10      30.32F
$$

REGIONAL REPORTS...DAKOTAS

CITY           SKY/WX    TMP DP  RH WIND       PRES   REMARKS
WILLISTON      FAIR      59  24  26 MISG      30.41F
MINOT          FAIR      59  19  21 NW9G21    30.40F
DICKINSON      FAIR      54  18  24 NW14      30.42F
BEACH          FAIR      52  25  35 VRB6G14   30.47F
CROSBY         FAIR      59  25  27 W10       30.39F
TIOGA          FAIR      54  19  26 CALM      30.41F
WATFORD CITY   FAIR      55  25  30 W5G12     30.42F
BISMARCK       FAIR      55  23  28 N12G21    30.42F
GRAND FORKS    FAIR      51  31  46 N24G32    30.37F
FARGO          FAIR      54  33  45 N20G31    30.35F
BUFFALO SD       N/A     50  20  30 NW12      30.40F
RAPID CITY     CLOUDY    43  28  55 N18       30.45F
$$

REGIONAL REPORTS...WYOMING/IDAHO/WASHINGTON

CITY           SKY/WX    TMP DP  RH WIND       PRES   REMARKS
GILLETTE       FAIR      45  27  49 N12       30.46F
SHERIDAN       FAIR      51  27  39 VRB3      30.46F
BUFFALO WY     FAIR      46  22  38 VRB6      30.46F
CODY           FAIR      48  21  34 N7        30.45F
YELLOWSTONE LA   N/A     35  14  42 VRB5      30.46F
IDAHO FALLS    FAIR      55  35  47 NE10      30.38F
SALMON         FAIR      56  23  27 VRB3      30.38F
BOISE          FAIR      63  34  33 VRB6      30.31F
SPOKANE        PTSUNNY   63  22  20 SE8       30.30F
$$

REGIONAL REPORTS...ALBERTA

CITY           SKY/WX    TMP DP  RH WIND       PRES   REMARKS
CALGARY        CLOUDY    68   9  10 S9        30.15F
EDMONTON       PTSUNNY   66  21  18 W9        30.08F
FORT MCMURRAY  SUNNY     66  25  20 W29G36    29.87F
HIGH LEVEL     MOSUNNY   57  25  28 VRB6G22   29.90S
LETHBRIDGE     PTSUNNY   72  10   9 SW18G30   30.18F
LLOYDMINSTER   PTSUNNY   68  28  22 W17G26    30.09F
MEDICINE HAT   MOSUNNY   68  16  13 S21G29    30.22F
ONEFOUR          N/A     61  19  20 S18G28      N/A
PEACE RIVER    CLOUDY    55  28  35 W13G20    30.03F
PINCHER CREEK  SUNNY     63  19  19 SW28G35   30.22F
WATERTON GATE    N/A     59  18  20 SW21G28     N/A
$$

REGIONAL REPORTS...SASKATCHEWAN

CITY           SKY/WX    TMP DP  RH WIND       PRES   REMARKS
CORONACH         N/A     63  23  22 W9          N/A
CYPRESS HILLS    N/A     54  21  28 SW15G22     N/A
ESTEVAN        MOSUNNY   59  21  23 W9G18     30.38F
MOOSE JAW        N/A     63  18  17 SW16G24     N/A
PRINCE ALBERT  PTSUNNY   64  32  29 SW18G24   30.16F
REGINA         MOSUNNY   63  25  23 W15G24    30.31F
ROCKGLEN         N/A     59  19  21 W13G21      N/A
SASKATOON      PTSUNNY   66  23  19 SW23G31   30.21F
SWIFT CURRENT  SUNNY     63  23  22 SW24G33   30.27F
VAL MARIE        N/A     61  19  20 SW16G22     N/A
$$



USA.gov is the U.S. government's official web portal to all federal, state and local government web resources and services.